• en Suisse
  • Liste des pays
  • À 7 jours
  • Température de l'eau
  • Carte satellitaire
  • Carte météo
  • Widgets météo
  • user-avatar
    Se connecter

    Météo par heure à Tadzhura

    Ce jour, 17 Décembre, Dimanche

    Heure Température Précipitation Vent Pression Humidité
    00:00 +27°C° 0 mm 3 m/s 759 mmHg 74%
    01:00 +26°C° 0 mm 3 m/s 759 mmHg 76%
    02:00 +26°C° 0 mm 3 m/s 759 mmHg 77%
    03:00 +26°C° 0 mm 3 m/s 759 mmHg 79%
    04:00 +26°C° 0 mm 3 m/s 759 mmHg 80%
    05:00 +25°C° 0 mm 3 m/s 759 mmHg 81%
    06:00 +25°C° 0 mm 3 m/s 760 mmHg 82%
    07:00 +26°C° 0 mm 3 m/s 760 mmHg 76%
    08:00 +27°C° 0 mm 3 m/s 760 mmHg 71%
    09:00 +28°C° 0 mm 4 m/s 760 mmHg 63%
    10:00 +29°C° 0 mm 4 m/s 760 mmHg 59%
    11:00 +30°C° 0 mm 4 m/s 760 mmHg 55%
    12:00 +32°C° 0 mm 5 m/s 760 mmHg 51%
    13:00 +32°C° 0 mm 5 m/s 759 mmHg 52%
    14:00 +32°C° 0 mm 5 m/s 759 mmHg 52%
    15:00 +32°C° 0 mm 6 m/s 758 mmHg 53%
    16:00 +30°C° 0 mm 5 m/s 758 mmHg 57%
    17:00 +29°C° 0 mm 5 m/s 758 mmHg 61%
    18:00 +28°C° 0 mm 5 m/s 759 mmHg 66%
    19:00 +28°C° 0 mm 5 m/s 759 mmHg 67%
    20:00 +28°C° 0 mm 4 m/s 760 mmHg 69%
    21:00 +27°C° 0 mm 4 m/s 760 mmHg 71%
    22:00 +27°C° 0 mm 4 m/s 760 mmHg 72%
    23:00 +27°C° 0 mm 4 m/s 760 mmHg 73%

    Demain, 18 Décembre, Lundi

    Heure Température Précipitation Vent Pression Humidité
    00:00 +27°C° 0 mm 4 m/s 760 mmHg 74%
    01:00 +26°C° 0 mm 4 m/s 760 mmHg 75%
    02:00 +26°C° 0 mm 4 m/s 760 mmHg 77%
    03:00 +26°C° 0 mm 4 m/s 760 mmHg 78%
    04:00 +26°C° 0 mm 4 m/s 760 mmHg 79%
    05:00 +26°C° 0 mm 3 m/s 760 mmHg 79%
    06:00 +26°C° 0 mm 3 m/s 761 mmHg 80%
    07:00 +26°C° 0 mm 4 m/s 761 mmHg 74%
    08:00 +27°C° 0 mm 4 m/s 762 mmHg 69%
    09:00 +28°C° 0 mm 4 m/s 762 mmHg 63%
    10:00 +29°C° 0 mm 5 m/s 762 mmHg 58%
    11:00 +30°C° 0 mm 5 m/s 761 mmHg 53%
    12:00 +32°C° 0 mm 6 m/s 761 mmHg 48%
    13:00 +32°C° 0 mm 6 m/s 760 mmHg 49%
    14:00 +32°C° 0 mm 6 m/s 759 mmHg 49%
    15:00 +32°C° 0 mm 6 m/s 759 mmHg 49%
    16:00 +30°C° 0 mm 6 m/s 759 mmHg 54%
    17:00 +29°C° 0 mm 5 m/s 759 mmHg 59%
    18:00 +28°C° 0 mm 5 m/s 759 mmHg 64%
    19:00 +28°C° 0 mm 5 m/s 759 mmHg 66%
    20:00 +28°C° 0 mm 5 m/s 760 mmHg 68%
    21:00 +27°C° 0 mm 5 m/s 760 mmHg 70%
    22:00 +27°C° 0 mm 5 m/s 760 mmHg 71%
    23:00 +27°C° 0 mm 5 m/s 760 mmHg 72%

    Après-demain, 19 Décembre, Mardi

    Heure Température Précipitation Vent Pression Humidité
    00:00 +27°C° 0 mm 4 m/s 760 mmHg 74%
    01:00 +26°C° 0 mm 4 m/s 760 mmHg 75%
    02:00 +26°C° 0 mm 4 m/s 760 mmHg 77%
    03:00 +26°C° 0 mm 3 m/s 760 mmHg 78%
    04:00 +26°C° 0 mm 3 m/s 760 mmHg 79%
    05:00 +25°C° 0 mm 3 m/s 760 mmHg 80%
    06:00 +25°C° 0 mm 3 m/s 760 mmHg 81%
    07:00 +26°C° 0,1 mm 4 m/s 761 mmHg 74%
    08:00 +27°C° 0,1 mm 5 m/s 762 mmHg 67%
    09:00 +28°C° 0,1 mm 6 m/s 762 mmHg 61%
    10:00 +29°C° 0 mm 6 m/s 762 mmHg 56%
    11:00 +30°C° 0 mm 7 m/s 762 mmHg 51%
    12:00 +32°C° 0 mm 7 m/s 761 mmHg 47%
    13:00 +32°C° 0 mm 7 m/s 760 mmHg 46%
    14:00 +32°C° 0 mm 7 m/s 760 mmHg 45%
    15:00 +32°C° 0 mm 7 m/s 759 mmHg 44%
    16:00 +30°C° 0 mm 6 m/s 759 mmHg 47%
    17:00 +29°C° 0 mm 6 m/s 760 mmHg 51%
    18:00 +28°C° 0 mm 6 m/s 760 mmHg 55%
    19:00 +28°C° 0 mm 6 m/s 760 mmHg 56%
    20:00 +27°C° 0 mm 5 m/s 761 mmHg 58%
    21:00 +27°C° 0 mm 5 m/s 762 mmHg 60%
    22:00 +27°C° 0 mm 5 m/s 762 mmHg 61%
    23:00 +26°C° 0 mm 4 m/s 761 mmHg 62%

    20 Décembre, Mercredi

    Heure Température Précipitation Vent Pression Humidité
    00:00 +26°C° 0 mm 4 m/s 761 mmHg 63%
    01:00 +26°C° 0 mm 4 m/s 761 mmHg 62%
    02:00 +25°C° 0 mm 3 m/s 761 mmHg 62%
    03:00 +25°C° 0 mm 3 m/s 761 mmHg 61%
    04:00 +25°C° 0 mm 3 m/s 761 mmHg 61%
    05:00 +24°C° 0 mm 3 m/s 761 mmHg 62%
    06:00 +24°C° 0 mm 3 m/s 762 mmHg 62%
    07:00 +25°C° 0 mm 4 m/s 762 mmHg 57%
    08:00 +27°C° 0 mm 4 m/s 763 mmHg 52%
    09:00 +28°C° 0 mm 5 m/s 763 mmHg 46%
    10:00 +29°C° 0 mm 6 m/s 763 mmHg 43%
    11:00 +30°C° 0 mm 6 m/s 763 mmHg 39%
    12:00 +32°C° 0 mm 7 m/s 762 mmHg 36%
    13:00 +32°C° 0 mm 7 m/s 761 mmHg 36%
    14:00 +32°C° 0 mm 7 m/s 761 mmHg 37%
    15:00 +32°C° 0 mm 7 m/s 760 mmHg 38%
    16:00 +30°C° 0 mm 6 m/s 760 mmHg 41%
    17:00 +29°C° 0 mm 6 m/s 760 mmHg 45%
    18:00 +28°C° 0 mm 6 m/s 761 mmHg 48%
    19:00 +28°C° 0 mm 5 m/s 761 mmHg 51%
    20:00 +27°C° 0 mm 5 m/s 762 mmHg 53%
    21:00 +27°C° 0 mm 5 m/s 763 mmHg 56%
    22:00 +27°C° 0 mm 4 m/s 763 mmHg 58%
    23:00 +26°C° 0 mm 4 m/s 762 mmHg 61%

    21 Décembre, Jeudi

    Heure Température Précipitation Vent Pression Humidité
    00:00 +26°C° 0 mm 3 m/s 762 mmHg 64%
    01:00 +26°C° 0 mm 3 m/s 762 mmHg 66%
    02:00 +25°C° 0 mm 3 m/s 762 mmHg 68%
    03:00 +25°C° 0 mm 3 m/s 762 mmHg 70%
    04:00 +25°C° 0 mm 3 m/s 762 mmHg 71%
    05:00 +25°C° 0 mm 3 m/s 762 mmHg 71%
    06:00 +24°C° 0 mm 2 m/s 763 mmHg 72%
    07:00 +25°C° 0 mm 3 m/s 763 mmHg 66%
    08:00 +26°C° 0 mm 4 m/s 764 mmHg 61%
    09:00 +28°C° 0 mm 5 m/s 764 mmHg 55%
    10:00 +29°C° 0 mm 6 m/s 763 mmHg 51%
    11:00 +29°C° 0 mm 6 m/s 763 mmHg 47%
    12:00 +30°C° 0 mm 6 m/s 762 mmHg 43%
    13:00 +30°C° 0 mm 6 m/s 762 mmHg 42%
    14:00 +30°C° 0 mm 6 m/s 761 mmHg 42%
    15:00 +32°C° 0 mm 6 m/s 760 mmHg 42%
    16:00 +30°C° 0 mm 6 m/s 761 mmHg 45%
    17:00 +29°C° 0 mm 6 m/s 761 mmHg 48%
    18:00 +28°C° 0 mm 6 m/s 761 mmHg 50%
    19:00 +28°C° 0 mm 5 m/s 761 mmHg 51%
    20:00 +27°C° 0 mm 5 m/s 762 mmHg 52%
    21:00 +27°C° 0 mm 4 m/s 762 mmHg 53%
    22:00 +27°C° 0 mm 4 m/s 762 mmHg 55%
    23:00 +26°C° 0 mm 3 m/s 762 mmHg 57%

    22 Décembre, Vendredi

    Heure Température Précipitation Vent Pression Humidité
    00:00 +26°C° 0 mm 3 m/s 762 mmHg 59%
    01:00 +26°C° 0 mm 3 m/s 762 mmHg 62%
    02:00 +25°C° 0 mm 2 m/s 761 mmHg 64%
    03:00 +25°C° 0 mm 2 m/s 761 mmHg 66%
    04:00 +25°C° 0 mm 2 m/s 761 mmHg 68%
    05:00 +24°C° 0 mm 2 m/s 762 mmHg 70%
    06:00 +24°C° 0 mm 2 m/s 762 mmHg 72%
    07:00 +25°C° 0 mm 3 m/s 762 mmHg 67%
    08:00 +26°C° 0 mm 3 m/s 763 mmHg 61%
    09:00 +27°C° 0 mm 4 m/s 763 mmHg 56%
    10:00 +28°C° 0 mm 4 m/s 763 mmHg 51%
    11:00 +29°C° 0 mm 5 m/s 762 mmHg 45%
    12:00 +30°C° 0 mm 6 m/s 761 mmHg 40%
    13:00 +32°C° 0 mm 6 m/s 760 mmHg 40%
    14:00 +32°C° 0 mm 6 m/s 760 mmHg 39%
    15:00 +32°C° 0 mm 6 m/s 759 mmHg 38%
    16:00 +30°C° 0 mm 6 m/s 759 mmHg 41%
    17:00 +29°C° 0 mm 6 m/s 759 mmHg 44%
    18:00 +28°C° 0 mm 5 m/s 759 mmHg 48%
    19:00 +28°C° 0 mm 5 m/s 760 mmHg 50%
    20:00 +27°C° 0 mm 5 m/s 760 mmHg 51%
    21:00 +27°C° 0 mm 4 m/s 760 mmHg 53%
    22:00 +27°C° 0 mm 4 m/s 760 mmHg 55%
    23:00 +26°C° 0 mm 4 m/s 760 mmHg 56%
    Voir plus